Theta_e
322 320 317 312 309 308 306 304 304 306 309 311 310 310 309 310 311 313 314 314 314 314 314 316 318 319 319 320 320 321 322 320 320 321 322 323 323 322 321 321 320 320 319 317 316 315 315 314 313 313 312 312 311 310 309 309 308 308 308 307 306 306 305 305 305 305 305 305 305 305 305 304 304 304 304 304 303 303 303 303 303 303 303 303 303
324 323 320 317 312 308 307 305 304 305 309 311 311 310 309 309 309 310 310 311 313 313 314 317 318 319 319 319 320 321 321 320 320 322 322 323 323 321 320 320 320 319 318 317 317 316 315 313 313 312 312 312 311 310 309 309 308 308 307 307 306 305 305 305 304 304 304 304 304 304 304 304 304 304 303 303 303 303 303 303 303 302 302 302 302
326 326 324 321 316 311 308 305 304 305 308 311 311 310 310 309 308 308 308 309 312 314 316 317 318 319 319 319 319 320 321 320 320 321 322 323 322 321 321 320 320 319 318 317 317 316 314 312 312 312 312 311 311 310 309 309 308 307 307 306 305 305 305 304 304 304 304 303 303 303 303 303 303 303 303 303 303 303 302 302 302 302 301 302 302
327 328 326 324 320 314 309 306 305 305 308 311 311 310 310 309 308 307 307 309 312 314 316 317 317 318 319 319 319 320 320 321 320 321 322 322 322 321 321 320 319 318 317 316 316 315 314 312 312 312 312 311 311 310 310 309 308 307 307 305 305 305 304 304 304 304 303 303 303 303 303 303 303 303 303 302 302 302 302 302 302 301 301 301 301
328 328 328 326 323 317 312 309 306 304 307 310 311 311 309 308 307 307 308 310 312 314 315 316 317 318 318 319 319 319 320 320 321 320 321 321 321 321 320 320 318 317 316 316 316 315 314 313 312 312 311 311 310 309 309 309 308 308 307 306 305 304 304 304 303 303 303 303 303 303 303 302 302 302 302 302 301 301 301 301 301 301 300 300 300
328 328 328 328 325 320 316 312 307 304 307 310 311 310 308 307 306 307 307 309 312 314 315 315 316 317 318 318 318 318 319 320 320 319 320 320 320 320 320 318 316 316 316 315 315 314 314 313 312 311 310 309 309 308 308 307 307 307 307 306 305 304 304 303 303 303 303 303 303 302 302 302 302 302 301 301 301 300 300 300 300 300 300 300 300
329 328 328 328 327 324 320 315 308 303 306 309 310 309 307 307 307 308 308 309 311 313 314 314 315 316 317 318 317 318 318 319 319 318 319 320 320 319 319 317 315 314 314 314 314 313 312 311 311 310 311 310 308 308 307 306 306 305 305 305 304 304 303 303 303 303 303 302 302 302 301 301 301 301 301 300 301 300 300 300 300 300 300 299 299
330 329 329 329 328 327 326 320 309 303 305 309 309 309 308 309 310 310 310 310 311 312 313 313 314 314 315 316 316 316 317 317 318 318 318 318 318 319 318 317 314 313 314 314 313 312 312 310 310 309 310 310 309 308 307 306 306 305 305 304 304 304 303 303 302 302 302 302 301 301 301 301 300 300 300 300 300 300 300 300 299 299 299 299 299
331 330 330 330 329 329 328 325 316 306 304 308 309 309 311 313 313 312 312 312 311 311 312 312 312 313 314 315 315 315 316 316 317 317 318 317 317 317 317 316 314 312 312 312 311 310 310 309 309 308 308 309 308 308 307 306 306 305 305 304 303 303 303 302 302 302 301 301 301 300 300 300 300 300 300 300 300 299 299 299 299 299 299 299 299
331 331 330 330 329 328 327 327 324 315 307 306 308 311 313 315 315 313 311 312 312 312 311 311 311 311 312 313 314 314 314 315 315 316 316 316 316 316 316 315 314 312 311 309 309 308 309 309 308 308 307 307 307 307 307 306 306 306 305 304 303 303 302 302 302 301 300 300 300 300 300 300 300 300 300 300 299 299 299 299 299 299 299 299 298
331 331 330 330 329 327 325 324 324 320 312 307 307 310 313 314 316 315 311 310 311 311 310 310 309 309 310 311 311 313 313 313 314 315 315 314 315 315 315 315 314 313 311 308 306 305 306 307 307 307 307 306 307 306 306 306 306 306 305 304 304 303 302 302 301 300 300 299 299 299 299 299 299 298 298 298 298 298 299 299 299 299 298 298 298
332 331 330 330 330 329 327 325 322 316 311 310 310 311 313 314 315 315 312 308 307 308 309 308 308 306 306 308 309 310 310 311 311 312 313 314 313 314 314 314 313 311 309 308 307 304 302 305 306 306 306 306 306 306 305 305 305 306 305 305 304 303 302 301 301 300 300 299 299 298 298 298 297 297 297 297 298 298 298 298 298 298 298 298 298
332 332 331 329 329 329 327 323 322 317 312 312 315 314 314 315 316 315 313 309 306 306 307 307 305 302 301 302 303 305 306 308 309 308 310 311 312 313 313 312 312 311 309 309 309 303 299 303 306 305 306 306 306 305 304 304 304 305 305 305 304 303 302 301 301 300 300 299 298 298 298 297 297 296 297 297 297 297 298 298 298 298 298 298 297
332 332 332 330 328 328 327 324 320 319 315 312 313 314 313 314 313 312 310 309 307 306 305 305 303 300 298 297 297 298 301 302 303 305 305 306 307 309 310 311 311 312 311 309 306 300 298 303 305 305 305 305 305 305 304 304 304 304 305 304 304 303 302 302 301 300 299 299 298 298 297 297 297 296 297 297 297 297 297 297 298 297 297 297 297
333 333 333 332 330 328 329 329 325 322 318 313 312 312 313 312 311 310 308 306 305 304 304 304 304 300 297 298 297 296 298 298 297 300 303 302 302 302 303 305 307 309 308 305 301 298 299 301 302 302 302 303 304 304 303 302 302 303 303 303 303 303 303 302 301 300 299 298 298 297 297 297 297 297 297 296 296 296 296 296 297 297 297 297 297
332 333 332 332 331 330 328 328 328 326 322 318 315 314 314 313 311 311 309 304 302 302 303 303 304 302 299 299 296 295 299 299 294 296 298 297 297 297 297 298 299 301 300 299 297 296 296 296 296 296 297 299 299 298 298 297 299 303 302 301 302 302 303 302 301 300 299 298 297 297 297 297 297 297 297 296 296 296 296 296 296 296 296 297 296
330 330 330 330 331 331 330 328 327 326 324 322 319 317 315 314 312 311 310 308 304 301 301 301 303 306 304 300 297 297 300 297 294 295 294 294 295 294 293 294 294 294 294 294 293 293 292 291 292 292 292 293 292 293 293 293 297 303 302 300 300 300 301 302 301 300 299 298 298 297 297 296 296 296 296 296 296 295 295 295 296 296 296 296 296
329 329 330 330 330 330 330 330 329 327 327 325 323 320 316 313 312 310 310 310 307 302 300 300 300 303 306 306 304 304 301 296 296 298 294 292 293 293 292 292 292 292 292 291 290 290 290 290 290 290 290 290 289 290 291 291 297 302 300 298 299 298 299 300 300 300 300 299 298 296 296 296 296 295 295 295 295 295 295 295 295 296 296 295 295
328 328 329 330 330 329 328 329 329 328 327 325 323 321 318 316 314 312 311 311 308 304 301 300 298 299 302 305 304 304 303 299 298 303 301 295 291 291 292 291 291 291 291 291 290 289 289 289 289 289 289 289 289 289 289 289 292 295 294 293 294 295 296 297 298 299 299 299 297 296 295 295 295 295 294 294 294 294 294 295 295 296 295 295 294
328 328 328 329 329 330 329 327 327 328 327 325 322 320 319 318 316 315 314 312 310 308 305 301 299 299 300 301 301 301 302 301 299 302 307 305 296 291 291 291 291 291 290 290 290 290 290 289 289 289 289 289 289 288 289 288 288 289 289 288 289 290 291 291 292 294 295 295 294 293 293 293 293 293 293 293 293 294 294 294 295 295 295 294 294
327 327 327 327 328 329 330 329 328 328 328 327 325 323 320 319 317 314 312 311 310 309 307 304 302 303 300 299 299 299 299 300 300 299 301 306 302 293 290 290 290 290 291 290 290 290 289 289 289 289 289 288 288 288 288 288 287 287 287 287 287 287 287 287 288 288 289 289 288 288 288 289 290 291 292 292 293 294 294 294 295 295 295 294 294
325 325 325 326 327 328 329 330 329 329 328 327 326 325 323 321 319 317 314 312 309 307 307 306 306 306 304 301 299 298 297 297 298 297 297 300 302 297 292 290 290 291 291 290 290 290 289 289 289 289 288 288 288 288 288 287 287 287 287 286 286 286 286 286 286 286 286 285 285 285 285 285 286 287 289 291 293 293 294 294 294 294 294 294 294
323 323 323 324 325 326 328 329 329 329 329 328 326 326 325 323 321 318 316 313 311 309 308 308 307 306 305 303 301 300 299 299 299 299 297 297 301 300 294 292 292 292 292 291 290 290 289 289 289 288 288 288 288 288 288 287 287 287 286 286 286 286 286 286 285 285 285 285 285 285 285 285 284 285 287 290 292 293 293 294 294 294 294 293 293
321 321 321 322 323 324 325 326 327 327 327 327 326 325 324 323 322 319 316 313 311 309 308 307 307 306 305 304 303 302 301 302 303 302 300 300 302 301 297 294 293 292 292 292 290 290 290 289 289 289 288 288 288 288 287 287 287 286 286 286 285 285 285 285 285 285 285 285 285 285 284 284 284 284 286 289 290 292 293 293 294 293 293 293 293
319 319 319 320 320 321 322 323 323 324 324 324 324 324 322 321 321 320 318 316 314 311 310 310 309 307 307 306 304 303 303 304 304 303 302 301 300 301 298 295 294 293 292 291 290 290 290 290 290 289 288 288 288 288 287 287 287 286 286 285 285 285 285 285 285 285 285 284 284 284 284 284 284 285 286 288 290 292 293 293 293 293 293 293 292
318 318 318 318 318 318 318 319 320 320 321 321 321 321 321 321 321 321 320 318 317 314 312 312 311 308 308 306 304 304 304 304 303 303 303 301 300 301 298 294 292 291 290 290 290 290 290 291 290 289 289 288 288 287 287 287 287 286 286 285 285 285 285 285 285 284 284 284 284 284 284 284 284 284 286 289 291 292 292 292 292 292 292 292 292
317 317 316 317 316 316 316 317 317 317 317 317 318 318 319 319 320 320 320 319 317 315 312 311 310 308 307 307 306 305 305 305 304 304 303 303 302 302 300 297 295 292 289 289 289 289 291 291 290 290 289 289 288 288 287 286 286 286 285 285 285 285 285 285 285 284 284 284 283 283 284 284 285 286 288 290 290 289 289 290 291 291 291 291 291
316 316 315 315 315 315 315 315 315 315 316 316 316 317 317 317 317 318 318 318 317 315 314 312 311 309 309 308 307 306 306 306 305 305 304 304 303 302 301 300 301 299 294 291 289 289 290 291 290 290 290 289 289 288 288 286 286 285 285 285 285 285 285 285 284 284 284 283 283 283 284 284 286 287 287 287 286 286 286 288 289 290 291 291 291
315 315 314 315 314 314 314 314 314 314 314 315 315 315 314 314 314 314 316 317 316 314 313 313 312 311 310 309 308 307 308 306 305 306 305 304 303 302 301 300 302 304 302 298 293 290 290 291 290 290 290 289 289 289 288 287 286 285 285 285 285 285 285 285 284 284 284 283 283 283 284 285 285 286 285 285 285 285 286 288 289 290 290 290 290
315 314 314 314 313 313 313 313 313 313 313 313 313 312 312 312 311 311 313 315 316 315 314 312 310 310 309 309 308 308 307 307 306 306 304 304 303 302 301 301 301 302 303 303 300 294 292 291 290 290 290 289 289 289 289 287 286 285 285 285 285 285 285 284 284 284 283 283 283 284 285 285 285 285 285 286 286 286 287 289 289 289 289 289 289
314 314 314 313 313 313 313 313 312 312 312 312 312 312 312 312 311 311 312 313 314 314 314 312 310 310 310 310 309 308 308 307 306 306 304 304 303 301 301 301 300 301 301 302 302 298 294 293 291 290 289 289 289 289 289 288 287 286 286 285 285 285 285 284 284 284 283 284 284 285 285 285 285 285 286 286 286 287 288 288 289 289 289 289 289
314 314 313 313 313 313 312 312 312 312 312 312 312 313 313 313 312 311 311 312 313 313 313 313 312 312 312 311 310 309 309 308 306 306 305 303 302 301 301 300 299 300 300 299 300 299 294 293 292 290 289 289 289 289 289 288 287 287 286 286 285 285 284 284 284 284 284 285 285 285 285 285 286 286 286 286 286 287 288 288 288 288 288 288 288
313 313 313 313 312 312 312 312 312 312 312 312 312 313 313 313 312 311 310 310 311 312 312 312 312 312 312 311 310 310 309 307 306 305 304 303 302 301 300 300 298 299 298 297 298 297 292 291 290 289 288 288 288 288 288 288 287 287 286 286 285 285 285 285 285 285 285 286 286 286 286 286 286 286 286 286 287 287 287 287 288 287 287 287 287
313 312 312 312 312 312 311 311 311 311 312 312 312 313 313 313 312 312 311 309 309 310 310 311 311 311 311 310 310 310 308 307 305 305 304 303 302 301 300 300 299 299 298 297 297 295 291 288 288 287 287 287 287 287 287 287 287 287 286 285 285 285 285 285 285 286 286 286 287 286 286 286 285 285 285 285 286 286 286 286 286 286 286 286 285
312 312 312 312 312 311 311 311 311 311 311 311 312 312 312 312 312 312 311 309 309 309 309 309 310 310 309 309 309 309 308 306 304 304 304 303 302 301 300 300 299 298 298 296 296 294 290 287 287 287 287 287 287 287 287 287 287 286 286 285 285 285 285 285 286 286 286 287 286 286 286 285 285 284 284 284 285 285 285 285 285 284 284 284 284
311 311 312 311 311 311 310 310 310 310 310 310 310 311 311 311 311 311 311 309 308 308 308 308 308 308 308 308 309 309 307 305 304 304 303 303 302 301 301 300 299 298 297 296 294 293 290 287 286 287 287 287 287 287 287 287 286 286 285 285 285 285 286 286 287 287 287 286 286 285 285 285 284 283 283 283 283 283 283 283 283 283 283 283 282
310 311 311 311 311 311 310 310 310 310 310 310 310 310 310 310 310 309 309 308 307 308 308 308 307 307 307 307 308 308 306 304 303 303 303 302 302 301 300 299 298 297 295 294 293 292 291 290 288 287 287 287 287 287 287 286 286 286 285 285 286 286 287 287 287 286 286 286 285 285 285 284 283 283 282 282 282 282 282 282 282 282 282 281 280
309 310 310 310 310 310 310 310 309 309 310 309 309 310 309 309 309 308 307 307 308 307 307 307 307 306 306 306 307 306 305 304 304 303 303 302 301 300 298 298 297 296 294 293 292 291 291 291 289 288 287 287 287 286 286 286 286 286 286 286 286 287 287 287 287 286 285 285 285 284 284 283 283 282 282 282 282 281 281 281 281 281 280 279 279
308 309 309 310 310 310 310 310 309 309 309 309 309 309 309 308 308 307 306 307 307 307 306 306 306 306 305 305 305 305 305 305 304 304 303 302 300 299 298 297 296 294 293 292 290 290 291 291 289 289 288 287 286 286 286 286 286 286 286 286 287 287 287 286 286 285 284 284 284 283 283 282 282 281 281 281 281 280 280 280 280 279 278 277 278
307 308 308 308 309 309 309 309 309 308 308 309 309 308 308 308 307 306 306 306 306 306 306 306 305 305 304 304 304 304 305 305 304 304 303 302 300 298 296 295 294 293 292 290 289 289 291 290 289 288 286 285 285 285 286 286 286 286 286 287 287 287 286 286 285 285 284 283 283 282 282 282 281 281 280 280 279 278 278 278 278 277 277 277 278
306 307 307 307 307 308 308 308 308 308 308 308 308 308 308 307 307 306 305 305 305 304 304 304 304 304 304 304 304 304 304 304 303 303 302 302 300 298 296 294 292 291 290 288 288 289 290 288 287 286 285 285 285 285 286 286 286 287 287 287 287 286 285 285 284 284 283 282 282 282 282 281 280 280 279 279 278 278 278 278 277 276 277 277 278
305 305 306 306 306 306 307 307 307 307 307 308 308 308 307 307 307 306 305 304 304 304 303 303 303 303 303 303 303 303 303 302 301 301 301 300 300 299 298 295 292 290 288 288 288 289 288 287 286 285 285 285 285 286 286 286 287 287 287 286 285 285 284 284 283 283 282 281 281 281 281 280 280 279 279 278 277 277 278 277 277 276 277 277 278
304 305 304 305 305 306 306 306 306 306 306 307 307 307 307 307 306 305 304 304 304 303 303 302 302 302 302 302 302 301 301 300 300 300 299 299 298 297 296 295 293 291 289 289 288 288 287 287 286 286 286 286 286 286 286 287 287 287 286 285 284 284 283 283 283 282 282 281 281 280 280 280 279 279 278 278 277 277 277 277 276 276 276 277 277
304 304 304 304 305 305 305 305 305 305 305 306 306 306 306 305 305 304 304 303 303 303 302 301 301 301 300 300 300 299 299 299 298 298 297 297 295 294 293 292 290 290 290 290 290 289 289 289 288 287 288 287 286 286 287 287 287 286 285 284 284 283 283 282 282 282 282 281 280 279 279 279 279 278 277 277 277 277 277 276 275 275 276 276 275
303 303 303 303 303 304 304 304 304 304 304 305 305 305 304 304 304 304 303 302 302 301 301 300 300 299 299 298 297 297 297 296 296 296 295 294 292 291 290 289 288 289 290 291 290 290 291 291 290 289 290 290 289 288 288 288 287 285 284 284 283 283 283 282 282 281 281 280 280 279 279 279 278 277 277 277 277 277 276 275 274 274 274 274 274
302 302 302 302 303 303 303 303 303 303 303 304 304 303 303 303 303 302 302 301 300 299 299 299 298 298 297 297 296 295 295 294 293 293 293 291 289 288 288 288 288 289 290 290 290 290 291 293 293 292 292 292 291 290 289 287 287 286 286 285 284 283 282 282 281 280 280 280 279 279 278 278 277 277 276 276 276 275 274 273 273 273 272 272 272
301 301 302 302 302 302 302 302 302 302 302 303 302 302 302 302 302 301 300 298 297 297 297 296 296 296 296 295 295 294 293 293 292 292 291 290 288 287 288 288 289 289 290 290 291 292 292 293 293 293 292 291 290 289 288 287 287 287 286 285 283 282 281 281 280 280 280 279 279 278 277 277 277 276 276 276 275 274 273 272 271 271 271 271 271
301 300 300 301 301 301 302 301 301 301 301 301 301 301 301 301 300 299 297 296 295 295 295 295 295 294 294 294 293 293 292 292 291 291 290 289 288 287 288 289 289 290 290 290 291 292 292 292 292 291 290 289 289 288 287 287 286 285 283 283 282 281 281 280 280 280 279 279 278 278 277 276 276 275 275 274 273 272 271 271 271 270 270 270 270
299 300 300 300 301 300 300 300 300 300 300 300 300 300 300 300 299 297 295 294 294 293 293 293 293 292 292 292 292 292 291 291 290 289 288 288 287 288 288 289 289 289 289 290 291 291 291 290 290 289 289 288 287 287 286 285 284 283 282 282 281 281 280 280 280 279 279 278 278 277 276 275 275 274 273 273 272 271 271 271 270 270 269 269 269
299 299 299 299 300 299 299 299 299 299 299 299 299 299 298 298 297 295 294 293 293 292 291 291 291 291 291 291 291 291 290 290 289 288 288 287 287 288 288 288 288 288 288 289 289 289 288 288 288 288 287 286 285 285 284 283 283 282 282 282 281 281 281 280 279 279 278 277 276 275 275 275 274 272 271 271 271 271 270 270 270 270 269 269 268
298 298 298 298 298 298 298 298 297 297 297 297 297 297 296 296 295 294 293 292 291 291 290 290 289 289 289 289 289 289 289 289 289 288 287 287 287 288 288 288 287 287 288 289 289 287 287 287 286 286 285 284 283 283 283 283 282 282 282 282 281 281 280 280 279 277 276 276 275 274 274 273 272 271 270 269 270 270 270 270 270 269 268 268 267
Wind_Speed
17 16 16 16 16 16 15 16 16 16 17 17 17 17 18 18 17 16 15 14 13 12 12 11 12 13 14 15 16 16 16 16 16 18 19 19 18 16 16 16 15 15 14 14 13 13 15 13 13 13 12 12 11 11 10 10 9 9 9 9 10 10 10 10 10 10 11 11 11 11 11 11 11 12 12 12 12 12 12 12 12 12 12 13 13
18 17 17 17 17 17 17 17 17 18 18 18 18 18 18 18 18 17 16 15 14 13 12 11 12 14 15 16 17 17 17 17 17 17 18 19 18 18 18 17 17 16 15 15 14 14 14 12 12 12 11 11 10 10 9 9 9 8 8 9 8 8 9 9 9 9 10 10 10 10 10 10 10 10 11 11 10 10 11 11 10 11 11 11 11
19 18 18 18 19 19 19 19 19 19 19 19 19 19 18 18 18 17 16 15 14 13 12 12 13 14 15 16 17 18 18 18 18 17 17 17 17 18 19 19 19 17 16 15 15 14 12 11 12 12 11 10 9 9 9 8 8 8 8 7 7 7 8 8 8 8 8 9 8 9 9 9 9 10 9 9 9 9 10 10 9 10 10 10 10
21 20 19 19 20 20 20 21 21 21 21 21 20 20 19 18 18 17 16 15 15 14 14 13 13 14 15 16 18 18 18 19 19 18 17 16 16 19 19 18 19 17 15 14 14 13 12 11 12 11 10 10 9 8 9 8 8 8 7 6 6 6 7 7 7 7 7 7 7 7 8 8 8 8 8 8 8 9 9 9 8 9 9 9 10
23 22 21 20 21 21 22 22 22 22 22 22 21 21 20 19 18 17 17 17 17 16 15 15 14 15 16 16 18 18 18 19 19 19 17 16 16 19 19 18 18 17 16 16 15 13 13 12 12 11 10 9 9 7 8 8 7 8 8 7 6 6 6 6 6 6 6 6 6 6 7 7 7 7 7 7 7 8 8 8 7 8 8 8 9
25 24 23 22 22 22 23 23 23 24 24 24 23 23 22 21 20 19 18 18 18 18 18 17 17 17 17 17 18 18 18 19 19 19 19 18 17 17 19 19 19 18 18 17 17 16 14 12 11 10 10 10 8 7 8 7 6 7 8 7 6 5 5 5 5 5 5 6 6 6 6 6 6 6 6 6 6 6 7 7 7 7 7 7 9
27 25 25 25 24 24 23 24 25 25 26 26 25 24 23 22 21 21 20 20 20 19 19 19 19 19 18 19 18 18 18 19 20 21 20 20 20 19 19 20 19 19 18 19 19 19 17 15 13 11 12 11 9 9 9 8 8 8 7 6 6 5 5 5 5 5 5 5 5 5 5 4 5 5 5 5 5 5 6 6 6 7 7 7 9
30 27 26 27 27 25 24 24 26 27 28 28 27 26 25 23 22 22 22 22 22 21 21 21 20 20 20 20 20 19 19 19 19 21 21 21 22 21 21 22 21 20 20 21 21 20 19 18 17 15 14 13 11 11 11 9 9 9 8 8 7 6 6 5 5 5 5 5 4 4 4 3 4 4 4 4 4 4 5 5 5 7 7 7 9
33 31 30 30 30 28 25 24 26 28 30 30 29 27 26 25 23 23 24 24 24 24 23 22 21 21 21 21 21 21 21 20 19 20 22 23 23 23 24 23 21 21 22 21 20 19 19 20 20 19 18 17 13 11 11 10 11 10 10 9 8 7 7 6 6 5 5 5 4 3 3 3 2 2 3 3 3 4 5 6 6 7 7 8 9
36 35 34 34 33 32 30 27 26 29 31 32 32 30 28 27 25 24 25 25 25 26 25 24 23 22 22 22 22 22 22 22 21 21 22 23 24 24 24 24 23 23 22 21 19 19 20 21 21 21 21 20 18 16 14 13 12 12 12 11 10 9 8 8 7 6 5 5 4 3 2 2 1 1 2 3 3 4 5 6 7 7 8 9 10
36 36 36 36 35 34 33 32 30 31 33 34 33 32 30 29 27 26 27 27 26 27 26 24 23 22 22 22 22 23 23 23 24 25 25 23 24 25 25 26 26 26 25 23 21 20 21 23 22 23 23 23 22 21 19 17 14 13 13 12 11 11 10 9 8 7 6 5 4 3 2 2 1 1 2 3 4 5 6 7 8 8 9 10 11
36 36 37 37 36 36 35 34 34 34 35 36 36 34 33 31 29 28 28 27 25 25 25 25 23 20 19 21 21 22 23 24 25 26 27 27 26 26 27 27 28 27 26 24 23 23 23 24 24 24 25 25 25 23 21 20 18 15 15 14 12 11 11 10 9 8 7 6 5 4 3 2 2 2 3 4 5 6 7 8 9 10 10 11 12
36 36 37 37 36 36 36 35 35 36 37 38 38 38 37 36 33 31 30 29 28 27 26 25 22 16 14 16 19 20 22 24 25 26 27 29 30 30 30 30 30 28 26 26 27 27 26 26 26 26 26 26 26 25 23 23 21 18 15 15 14 13 12 11 9 8 8 7 6 5 4 3 2 3 3 4 5 6 7 8 9 10 11 12 13
36 36 38 38 37 37 36 34 34 36 38 38 38 38 38 37 35 33 31 31 30 30 31 27 20 16 12 9 10 14 19 23 25 26 27 28 29 31 32 32 33 32 32 31 30 29 27 27 27 26 27 26 26 26 24 24 23 21 18 17 16 15 14 12 10 9 8 7 7 6 4 4 3 3 4 5 6 7 8 9 10 11 12 13 14
36 36 37 37 36 37 37 37 37 38 38 38 37 37 38 37 36 34 32 30 29 30 34 31 23 18 11 4 3 5 11 19 25 28 30 29 29 30 31 32 32 33 34 33 31 29 28 28 28 28 27 27 27 26 25 24 24 24 23 21 18 15 15 15 12 10 9 8 7 6 5 5 4 5 5 6 7 8 9 10 11 12 13 14 14
37 37 37 36 36 37 38 38 40 41 41 40 40 39 40 40 40 37 33 30 28 29 35 35 29 22 10 3 3 2 4 11 19 28 30 29 30 30 30 31 31 32 32 32 31 30 30 30 30 30 29 29 29 28 27 25 25 26 24 23 21 17 16 16 14 12 11 10 8 6 6 6 5 6 6 7 8 8 9 11 12 13 14 14 15
38 37 38 38 38 38 37 36 39 41 40 39 40 40 40 42 43 41 39 35 31 30 34 37 35 32 21 9 4 3 4 4 8 17 25 30 31 31 30 30 31 31 32 32 32 31 31 31 31 30 30 30 29 29 29 27 27 27 24 22 22 20 17 16 15 14 12 10 9 7 7 7 7 7 7 8 9 9 10 12 13 13 14 15 16
38 37 38 38 39 39 38 36 36 38 39 39 42 41 39 40 41 40 40 39 34 30 32 38 37 36 33 22 12 9 6 6 4 3 13 25 30 30 31 31 31 31 32 33 33 33 32 31 31 30 29 29 29 28 28 27 28 29 26 24 23 22 20 18 15 14 13 11 10 9 8 8 8 8 9 9 10 10 11 12 13 14 15 16 17
38 38 38 39 40 41 40 39 38 38 38 39 42 43 42 42 42 41 41 39 36 32 32 36 35 34 37 32 22 15 11 11 8 2 3 12 23 29 31 32 32 32 34 35 34 33 33 33 32 31 30 29 29 28 28 28 29 30 29 26 25 24 23 21 18 15 13 12 10 9 9 9 9 9 9 10 11 11 12 13 14 14 15 16 18
39 39 39 40 40 41 40 40 40 41 41 39 39 39 40 41 42 43 44 42 42 41 38 36 35 36 40 37 30 23 18 16 14 12 6 2 10 20 29 34 34 34 36 36 36 35 35 35 33 32 31 30 29 28 28 29 29 29 28 27 26 25 24 22 21 19 17 15 13 11 10 9 9 9 10 10 11 11 12 13 14 14 15 17 18
39 40 40 40 40 40 40 39 39 40 41 42 42 41 39 40 40 41 42 42 44 44 39 38 40 39 38 38 35 28 23 19 18 17 12 6 5 7 18 25 26 35 40 37 38 38 36 35 34 33 31 31 31 29 29 29 29 28 27 26 25 24 23 22 22 21 20 19 17 15 13 12 11 10 10 10 11 11 12 13 14 15 16 17 19
38 40 40 40 39 39 39 39 40 39 38 37 39 40 40 41 41 42 44 45 45 44 40 39 41 42 39 37 35 29 21 17 18 20 16 12 8 5 14 19 18 29 39 41 41 39 37 36 34 34 35 34 32 31 31 30 29 28 26 25 24 23 22 21 21 20 19 18 16 15 14 13 12 11 10 10 11 12 12 13 14 15 16 18 19
37 37 38 38 38 40 39 39 39 39 39 37 36 37 39 42 42 41 44 46 47 46 46 43 41 41 40 38 37 36 30 24 26 29 22 14 10 7 13 20 19 22 29 37 41 39 38 38 37 38 37 36 34 32 32 31 29 28 25 24 24 23 21 20 19 18 17 16 15 14 13 12 12 11 10 11 12 12 13 13 14 15 17 18 20
36 36 37 37 38 40 41 41 41 41 41 41 40 37 36 38 39 39 41 44 45 44 43 42 40 39 40 42 42 41 39 36 34 33 30 25 17 9 10 15 15 17 22 26 32 38 40 39 40 40 39 37 35 34 33 31 30 28 25 24 23 22 21 18 17 16 15 14 13 12 12 12 11 11 11 11 12 12 13 14 15 16 17 19 20
36 37 38 37 38 39 40 42 43 42 42 41 42 41 38 37 36 38 40 43 46 46 45 45 45 44 44 45 43 40 40 41 37 31 30 29 21 13 12 12 10 12 17 19 23 30 37 41 42 41 40 39 36 34 34 31 30 29 26 25 23 21 20 17 15 14 14 13 13 13 13 12 11 11 11 11 12 13 13 14 15 16 17 19 20
37 38 37 36 37 38 39 40 41 41 40 40 39 39 39 38 38 39 42 45 47 48 49 50 49 48 46 42 41 41 41 41 39 34 30 29 27 21 13 9 8 9 11 16 19 20 28 38 44 43 41 40 37 35 35 33 31 29 26 24 23 21 19 16 15 14 14 13 13 14 13 13 12 11 11 12 12 13 14 14 15 16 18 19 21
37 36 35 34 35 35 36 38 38 39 39 39 39 39 38 37 37 39 42 46 46 46 47 46 46 46 45 42 40 41 42 42 41 39 37 36 35 31 21 9 6 6 6 10 15 21 27 31 36 43 44 41 39 36 35 34 32 28 26 24 22 21 18 16 14 13 13 13 14 14 14 12 12 12 12 13 13 14 14 15 16 17 18 20 21
36 35 34 33 33 34 35 36 36 37 38 38 39 39 39 38 37 37 40 43 45 46 47 47 47 47 47 45 44 43 43 44 43 42 42 41 37 34 30 21 11 5 4 5 9 18 28 28 28 36 43 43 41 37 35 34 31 28 26 24 23 20 17 16 14 13 13 13 14 14 13 13 13 13 13 14 14 14 14 15 16 18 19 20 22
35 34 33 33 33 33 34 35 35 35 36 37 38 38 37 38 38 38 38 39 41 43 44 45 48 48 47 46 46 46 45 43 43 43 43 42 40 37 36 32 23 10 4 5 7 12 22 29 29 29 35 41 42 38 35 33 31 29 26 24 22 19 17 16 14 13 13 13 13 13 12 13 13 13 13 13 13 14 14 16 17 18 20 21 23
34 34 34 33 33 33 33 34 34 35 36 36 36 36 35 35 36 37 38 37 37 40 41 43 44 43 43 43 43 44 44 42 43 43 42 41 41 40 37 35 31 21 11 7 9 13 18 25 30 29 29 34 40 39 35 32 31 29 26 23 22 19 17 15 14 13 13 12 12 11 11 12 13 13 12 12 13 14 15 17 18 19 21 22 24
34 34 34 34 33 33 33 33 34 34 35 36 35 34 34 33 34 35 36 36 35 37 38 40 41 40 40 41 42 42 42 42 41 41 41 41 41 40 37 36 34 31 25 13 7 10 16 20 26 30 28 28 34 39 36 32 31 27 24 23 21 19 16 14 13 13 12 11 10 10 11 12 12 12 12 13 14 15 16 17 18 20 22 23 24
35 34 34 34 34 33 33 34 34 34 35 35 35 34 34 34 33 33 34 34 35 36 37 38 38 39 40 40 41 42 41 41 41 41 40 41 40 38 36 36 35 33 31 21 10 9 13 18 21 26 27 24 27 35 37 33 29 26 23 22 19 17 15 13 14 13 11 10 9 9 10 11 11 12 12 14 15 15 17 18 19 20 21 22 23
35 34 34 34 34 34 33 34 34 35 35 35 34 34 35 36 35 33 31 32 34 36 36 36 37 38 39 39 39 40 39 39 39 39 39 39 38 36 35 35 34 34 33 27 19 12 10 14 16 19 23 22 22 29 35 33 29 25 22 20 18 16 16 15 15 13 12 11 10 10 10 10 11 12 13 14 15 15 16 17 18 19 20 21 22
35 34 35 34 34 34 34 35 35 35 35 35 34 34 35 37 37 35 32 31 34 35 35 36 37 36 37 37 37 38 37 38 38 38 39 38 37 36 36 35 34 36 36 33 26 15 9 11 13 15 20 21 19 24 31 31 27 23 20 19 18 17 17 17 16 15 14 11 9 9 9 10 11 12 13 13 14 14 15 15 16 17 18 19 21
35 35 35 34 34 34 34 35 36 35 35 34 33 34 35 36 37 37 33 31 33 35 35 36 37 36 36 36 37 37 36 36 37 38 38 37 37 37 36 37 36 36 37 36 29 18 12 12 13 16 20 20 17 19 24 24 22 20 19 18 18 19 19 18 17 17 14 10 8 8 9 11 11 12 12 13 13 13 13 14 15 16 18 19 20
37 36 35 35 35 35 36 36 36 36 35 35 34 34 35 35 35 36 34 33 34 34 34 36 36 36 36 37 38 37 36 36 36 37 37 36 37 37 36 36 36 36 35 35 30 23 17 14 14 17 21 20 17 18 21 21 19 19 19 19 20 21 20 19 18 16 12 9 8 9 10 11 12 13 13 13 13 13 14 15 17 17 17 17 19
38 37 36 36 36 36 37 37 37 37 36 35 35 34 35 34 34 34 34 34 35 35 34 35 35 36 36 37 38 36 35 35 36 36 36 36 36 36 35 35 35 34 32 32 29 25 20 18 17 18 20 20 19 19 21 22 21 20 20 21 22 21 19 18 15 12 10 9 9 9 10 12 13 13 11 11 13 14 15 16 16 15 15 16 18
38 38 37 37 37 38 38 37 37 37 36 35 35 35 35 34 33 33 34 35 35 35 34 34 35 36 36 37 37 36 35 36 36 36 36 36 36 34 34 33 32 31 29 28 28 25 23 22 22 21 21 21 21 19 20 22 23 22 21 20 20 19 17 15 12 10 9 9 9 10 11 12 12 11 11 12 14 14 14 13 12 13 14 17 19
38 38 39 39 38 38 38 38 38 37 37 36 36 36 35 35 34 33 33 35 35 35 35 35 35 36 36 37 36 36 36 36 37 36 35 35 34 34 33 32 30 29 27 27 27 26 24 23 23 24 23 22 21 20 20 21 22 21 20 19 18 16 14 12 11 9 8 8 9 9 10 10 10 12 13 13 13 11 10 11 11 14 17 19 20
38 38 39 39 38 38 38 38 38 38 37 37 37 37 36 36 35 33 33 34 35 35 35 35 35 35 36 36 35 35 36 36 36 36 35 34 33 32 31 30 28 28 27 27 28 27 26 24 22 22 23 22 21 21 20 20 20 19 20 19 16 14 12 11 10 9 8 7 8 9 9 10 11 12 11 10 10 10 10 11 13 16 19 19 20
37 37 38 38 38 38 38 39 39 38 38 38 38 38 37 36 35 34 33 34 35 34 33 33 33 34 35 34 34 34 35 35 35 34 34 34 33 32 30 29 28 28 28 29 29 28 25 22 21 22 22 22 22 22 21 22 23 21 19 17 15 12 11 10 9 8 7 7 8 9 9 10 11 10 8 9 10 10 10 12 14 17 19 19 20
36 36 36 37 37 38 38 39 39 39 39 39 39 38 37 36 35 33 32 32 34 33 32 32 33 33 34 33 33 33 33 33 32 32 32 32 32 31 30 30 30 30 30 30 29 28 26 22 22 23 21 19 22 24 23 22 22 19 17 16 15 12 11 9 7 6 7 7 7 8 9 8 8 8 8 10 10 10 10 12 15 18 19 19 19
36 35 35 36 37 37 38 39 39 40 40 39 38 37 36 35 34 33 32 31 33 33 32 32 32 32 32 32 31 31 31 31 30 30 30 30 30 29 29 29 31 33 34 31 28 27 26 22 22 23 22 20 22 25 22 20 19 17 16 16 15 13 11 8 5 4 6 6 5 7 9 7 6 7 8 9 10 10 10 13 16 18 18 17 17
34 34 34 36 37 37 37 38 39 40 40 39 37 36 35 34 33 34 32 31 32 32 32 31 31 31 30 30 30 29 29 30 29 29 28 27 27 27 27 27 29 32 33 33 31 29 27 24 23 23 23 22 22 24 22 20 19 18 15 15 14 12 10 8 7 6 5 5 5 7 9 7 5 7 8 8 9 10 12 16 19 17 14 14 15
32 32 33 35 36 36 36 38 39 39 39 37 36 35 34 33 32 33 32 32 32 32 31 30 29 29 28 28 27 27 27 27 26 26 26 25 24 24 24 26 27 28 28 29 30 30 29 26 25 24 23 21 21 23 22 21 20 19 17 15 13 11 10 10 10 8 6 6 6 6 7 6 6 7 8 8 10 12 15 19 16 12 11 13 15
31 32 33 34 34 35 36 37 37 38 38 36 35 34 33 31 31 31 32 32 32 31 30 29 28 27 27 26 26 25 25 24 24 24 23 24 23 23 23 25 26 25 25 24 25 25 25 24 22 21 21 20 18 19 20 20 19 18 17 15 14 12 12 11 8 7 6 6 6 4 5 6 7 8 10 10 12 15 17 17 11 8 11 14 14
32 32 32 33 34 34 34 35 36 37 36 35 33 32 31 30 30 30 31 31 30 29 28 27 26 25 25 25 24 24 23 22 22 23 23 25 25 25 26 26 26 24 23 23 22 21 19 19 17 15 16 17 15 16 19 18 16 15 13 12 12 11 10 10 8 7 7 6 6 5 5 7 9 11 11 13 16 17 15 12 8 8 12 13 12
31 31 32 32 33 33 33 33 34 36 35 33 31 30 29 29 29 29 29 28 27 27 26 25 25 24 23 23 22 22 22 22 22 23 25 27 28 28 27 26 24 22 21 20 20 17 15 16 16 14 15 17 16 16 17 17 15 14 12 11 11 11 11 11 9 8 7 7 8 8 7 9 11 12 12 15 18 14 9 7 6 10 13 12 11
31 31 32 32 32 33 32 32 33 34 34 31 29 28 28 28 28 28 27 26 25 25 24 23 22 21 21 22 22 22 22 22 22 24 27 29 30 30 29 26 25 22 20 18 17 15 14 16 16 15 15 17 16 15 15 14 13 13 14 15 15 15 14 11 8 7 8 8 9 10 8 8 10 11 14 17 14 8 6 6 6 12 15 12 11
30 31 31 31 32 31 32 32 32 32 32 29 27 27 27 27 26 25 24 23 23 22 21 21 20 20 21 21 21 22 22 21 23 26 29 31 32 32 31 29 26 24 22 20 18 17 16 15 15 15 15 14 14 13 12 12 12 13 16 16 17 17 15 11 8 7 7 10 12 11 7 7 8 10 14 14 7 4 7 7 7 13 15 13 14
29 30 29 29 30 30 30 30 29 29 28 26 25 25 25 25 24 23 22 22 22 21 20 20 19 18 19 18 19 20 20 21 24 27 31 34 34 33 32 30 27 25 23 23 22 21 20 18 17 16 15 15 15 15 14 14 14 15 15 15 15 15 14 12 10 8 5 7 11 10 7 7 9 10 11 8 3 3 7 8 10 14 13 14 17
Wind_Direction
209 207 207 207 207 207 206 205 203 203 200 198 198 197 196 199 202 204 205 204 205 204 202 202 199 195 193 188 182 178 174 173 177 176 174 172 164 159 156 151 155 156 146 140 140 138 131 123 119 123 123 119 118 117 115 112 109 105 103 100 97 95 93 92 91 89 88 87 85 85 83 82 81 78 76 75 70 62 59 57 54 54 50 45 43
213 211 211 211 211 211 210 208 207 207 206 204 203 204 203 202 205 208 209 209 207 206 205 202 198 195 194 192 187 184 180 179 184 183 183 182 170 161 159 160 163 158 150 147 143 140 133 126 127 130 130 127 123 121 120 117 116 113 109 106 101 99 98 95 94 91 90 89 87 87 87 85 84 79 78 77 68 62 60 55 55 54 46 42 41
217 215 215 216 215 214 213 211 210 210 209 208 207 208 208 206 207 209 212 213 209 206 205 204 200 197 197 197 193 190 188 186 189 192 195 191 178 170 168 170 166 155 154 152 145 145 140 133 137 138 138 138 134 132 130 124 124 123 116 111 108 105 104 100 98 95 93 92 93 92 90 88 85 80 79 76 66 61 59 54 54 50 41 39 37
221 220 220 219 219 218 216 215 214 212 211 210 209 209 210 209 208 209 212 213 212 208 205 206 204 200 199 199 198 196 195 194 196 201 205 205 191 179 177 174 164 157 160 157 151 152 149 141 143 145 145 145 142 141 143 138 136 135 129 122 120 115 110 108 104 102 99 97 99 98 94 89 84 80 78 71 62 59 56 52 50 43 36 33 30
223 223 224 224 223 222 220 219 216 214 212 211 210 210 210 209 208 208 211 212 213 210 206 205 205 204 202 202 201 200 201 199 199 204 209 213 201 181 178 176 167 165 164 159 158 156 152 148 147 152 153 154 153 153 154 151 148 146 140 133 130 125 117 116 113 110 107 106 107 103 96 88 80 77 74 65 58 54 48 45 43 36 30 25 18
228 226 226 228 228 226 225 223 219 216 213 212 211 211 211 211 211 209 210 212 213 213 210 206 205 205 204 203 203 201 203 202 198 203 208 208 204 186 176 176 172 174 173 166 165 161 158 159 161 166 164 163 165 170 171 168 170 163 153 145 140 139 135 129 124 124 121 116 112 103 94 84 75 72 69 59 50 46 37 36 33 23 20 15 7
234 232 228 228 229 229 229 227 221 217 215 214 213 213 213 214 214 212 209 211 213 213 212 210 207 206 205 203 203 202 202 204 198 200 204 203 202 193 181 182 181 182 183 177 174 170 170 172 174 177 178 177 180 181 178 178 182 178 175 173 163 157 154 148 139 137 135 122 111 101 93 85 73 63 58 48 40 37 26 23 18 11 9 2 356
234 235 232 231 230 229 232 232 225 219 216 215 214 214 216 216 217 217 213 210 210 211 212 212 210 207 207 205 204 202 201 204 203 201 203 202 200 195 189 190 189 189 191 185 182 182 182 183 182 180 182 182 179 180 183 187 186 182 183 180 173 171 165 159 155 150 141 128 120 110 94 84 75 58 45 31 23 21 12 7 358 355 354 348 344
231 232 231 231 230 229 233 236 231 224 219 216 216 218 220 219 218 218 219 216 212 211 210 209 210 208 207 207 205 205 204 203 207 208 207 203 200 196 193 195 195 195 196 194 195 197 196 194 190 187 186 183 182 190 195 194 190 187 188 184 180 184 178 169 166 162 151 137 132 127 109 90 75 49 31 19 5 356 353 349 341 339 340 337 336
231 230 230 229 229 227 226 228 230 228 223 219 218 220 223 224 222 220 220 219 216 213 210 207 207 207 206 207 207 208 208 207 211 214 210 205 203 202 202 205 208 207 208 211 215 215 210 205 200 197 195 190 191 197 197 194 196 195 190 187 185 186 187 182 176 171 162 154 152 148 141 120 85 25 0 355 345 340 336 335 332 329 330 330 330
232 230 230 230 229 228 225 222 223 224 222 220 218 218 218 219 222 224 219 218 220 216 211 206 203 206 206 206 208 210 212 211 213 216 217 215 212 211 213 215 218 221 225 228 228 226 220 215 210 205 202 197 195 196 195 193 196 198 193 190 190 190 191 188 182 179 175 172 174 170 168 173 198 299 315 319 323 326 325 325 326 323 324 325 325
235 233 231 230 230 232 231 226 224 221 218 218 219 220 220 218 220 223 219 214 216 215 212 207 201 200 204 207 210 213 215 216 215 216 219 223 224 222 222 223 224 226 229 232 235 235 227 220 216 210 207 204 202 201 199 196 193 194 198 197 196 198 200 195 186 185 184 181 183 186 192 208 243 285 303 310 314 318 320 321 320 320 320 320 320
233 234 232 230 230 231 229 226 225 222 220 220 221 223 223 222 221 220 219 213 211 213 211 205 195 190 198 209 215 217 218 220 221 220 219 222 225 227 227 228 230 233 236 239 239 237 228 220 218 214 212 209 208 207 205 203 196 194 201 203 202 202 205 202 192 191 195 192 192 197 206 223 248 277 294 304 310 312 316 318 317 317 317 316 316
232 233 232 230 229 228 229 230 228 225 223 221 220 220 220 220 216 212 212 212 212 212 207 199 192 188 187 197 222 230 227 227 227 226 224 224 225 227 228 229 231 235 240 241 238 232 225 220 218 216 216 214 213 211 210 209 203 198 199 203 205 205 206 205 198 199 202 199 200 205 214 230 249 270 286 297 304 309 313 314 314 315 315 315 315
235 235 233 231 230 228 230 235 235 231 226 222 219 218 219 218 216 211 207 207 211 211 207 202 194 182 167 170 218 238 243 239 234 229 227 227 229 229 230 230 230 231 233 234 230 226 223 222 221 221 220 218 216 216 214 214 211 206 202 201 202 203 206 206 201 201 205 207 211 214 222 235 253 267 281 291 298 305 309 311 312 313 314 314 314
236 237 236 236 236 233 230 229 231 230 226 224 222 221 221 219 217 215 209 203 204 208 208 206 201 190 166 123 144 165 259 243 233 232 229 228 231 232 232 233 231 229 228 228 227 227 226 225 225 225 225 224 223 223 222 220 216 211 208 208 204 201 204 208 208 207 208 213 220 223 229 241 256 267 276 287 295 302 306 308 310 311 312 313 313
236 237 238 239 239 237 234 230 229 227 225 226 226 225 224 221 217 215 212 209 207 207 207 206 207 209 200 175 146 190 240 216 218 235 231 227 230 232 233 234 233 231 229 229 228 228 228 228 229 229 229 228 228 228 227 224 217 211 211 213 210 205 203 205 209 212 213 214 216 223 236 248 258 268 276 285 294 300 304 307 308 310 311 312 312
236 237 238 238 237 237 237 237 233 229 230 233 233 230 226 221 218 215 213 214 212 207 207 206 208 214 213 210 211 205 193 168 157 248 234 228 229 231 232 234 235 234 233 231 229 228 229 230 230 230 231 230 229 229 228 224 218 215 217 217 215 213 209 206 205 208 214 216 218 227 239 250 259 269 278 286 294 299 303 306 307 309 310 311 312
237 236 237 237 238 238 239 240 238 236 236 234 230 228 226 224 223 222 220 220 215 212 212 208 207 214 218 220 223 219 204 186 180 187 230 230 229 229 232 233 233 234 234 234 232 231 231 230 231 231 231 231 230 229 228 227 223 222 223 222 220 219 217 215 211 207 209 213 219 229 238 249 258 268 277 287 294 299 303 305 307 308 309 311 310
240 238 237 237 239 239 238 237 237 238 239 237 233 230 228 227 226 226 225 223 220 219 217 209 206 214 219 220 225 228 220 206 204 207 192 209 224 225 231 232 231 232 234 235 234 233 233 231 231 232 232 232 231 229 228 228 226 225 224 223 221 220 220 222 222 219 219 219 225 232 240 249 259 268 278 288 295 300 303 304 306 308 309 309 308
243 242 239 238 239 240 239 238 237 237 236 236 237 234 231 229 228 227 225 223 222 222 219 212 211 216 217 219 224 229 227 219 218 216 210 214 211 210 222 224 230 233 232 233 233 233 233 233 233 233 233 233 232 231 229 229 228 226 224 222 221 221 221 223 226 228 230 233 237 240 244 250 258 268 279 290 298 301 303 304 305 306 307 307 307
245 244 242 239 239 240 240 238 238 239 239 237 235 234 235 234 233 232 230 226 224 222 221 219 220 221 220 218 219 220 222 223 223 221 220 227 231 217 206 203 219 231 230 230 231 231 231 232 233 234 234 233 232 231 230 229 228 227 225 223 223 221 220 221 224 228 232 235 240 244 250 256 263 272 284 294 300 303 304 304 304 306 306 306 306
247 246 244 241 239 239 239 239 238 239 241 243 243 241 241 239 237 235 233 229 226 225 225 225 225 224 222 221 219 216 215 218 222 219 215 219 226 226 209 206 216 229 230 231 231 230 230 230 231 233 234 233 232 231 230 229 228 228 225 224 225 223 220 220 223 229 232 234 241 249 258 268 275 283 292 298 301 304 304 305 305 306 306 305 307
249 247 245 243 241 240 240 241 242 242 242 244 246 248 247 242 237 235 233 231 229 227 225 226 227 225 224 225 225 222 221 226 229 224 219 219 222 230 219 211 221 231 233 232 231 231 230 230 231 232 234 235 233 232 231 229 228 228 225 224 226 225 222 220 224 231 237 241 249 259 269 277 284 291 296 298 301 304 305 306 307 308 306 306 308
250 249 249 247 245 244 242 242 243 244 245 245 246 249 251 249 244 240 237 235 233 231 231 231 231 228 228 228 227 225 227 231 233 230 225 223 224 233 225 213 221 229 227 227 229 231 231 231 232 232 233 234 233 232 231 229 228 227 225 224 226 227 225 223 226 234 242 250 259 268 277 282 285 290 293 298 304 305 305 307 308 309 308 309 310
255 255 256 254 251 250 248 248 247 246 247 247 247 248 250 251 250 246 243 240 237 235 234 234 233 230 229 229 229 229 230 233 234 232 228 223 222 223 215 207 224 224 221 226 226 228 232 232 232 230 232 233 232 231 231 229 228 227 224 225 227 228 228 227 230 238 246 254 263 272 278 281 285 291 297 301 303 302 303 305 307 309 310 311 311
261 261 261 258 257 257 255 254 252 250 250 250 250 249 249 252 253 251 247 244 241 237 235 234 232 230 229 230 231 232 233 234 234 233 231 228 226 223 213 199 223 227 222 230 227 229 234 234 234 231 230 231 230 229 231 231 229 228 226 226 229 231 231 232 236 243 251 260 268 272 276 281 288 294 298 299 298 300 303 305 307 309 310 311 311
264 264 263 262 261 261 260 259 258 255 253 251 250 250 250 251 253 254 250 245 241 238 235 234 233 232 231 232 233 233 235 237 235 233 233 232 230 228 221 211 213 223 218 227 232 236 235 232 233 234 231 229 228 227 229 231 231 230 228 228 231 233 234 236 239 244 252 261 266 271 278 284 289 293 295 299 303 306 307 307 308 308 309 310 309
266 266 266 265 264 263 262 262 261 259 257 255 253 253 252 252 252 254 254 249 242 237 235 234 234 234 232 232 232 234 237 237 235 234 234 233 231 231 228 220 217 217 217 231 226 228 232 228 227 232 231 227 226 225 226 228 230 231 230 231 233 234 234 236 239 242 246 253 260 268 276 283 289 294 300 306 308 310 309 309 308 307 308 308 309
269 269 268 267 266 264 263 263 263 262 261 260 259 257 255 254 254 254 255 253 246 241 239 237 235 233 232 233 234 235 237 237 237 237 234 234 233 231 229 226 224 222 224 242 233 218 223 227 226 228 229 224 222 223 223 223 226 229 229 232 234 234 233 233 235 236 238 244 253 264 275 284 292 297 303 305 307 310 310 308 307 307 308 308 309
270 270 270 269 268 266 264 264 263 262 262 262 262 261 258 257 257 255 254 254 250 245 242 239 236 234 236 237 236 236 238 239 241 239 236 236 234 230 229 228 226 226 228 236 251 229 220 224 227 227 226 223 220 219 219 219 222 225 225 228 232 233 231 228 227 229 232 239 249 261 274 283 290 295 299 302 306 309 308 308 308 309 309 308 310
271 271 271 270 269 268 267 266 264 262 262 261 261 261 259 257 256 256 255 254 253 250 246 243 241 241 241 240 238 239 241 241 240 239 236 235 233 230 230 229 226 228 229 227 237 242 224 224 229 226 222 220 220 219 216 215 218 219 220 224 228 228 224 220 220 223 227 233 242 254 267 278 286 293 299 304 307 309 309 310 310 309 309 309 312
271 271 271 271 270 270 268 267 265 263 261 260 259 258 258 257 255 255 259 259 257 255 253 250 249 247 245 242 242 243 243 242 240 238 236 234 232 230 230 229 227 229 228 225 229 239 224 218 224 221 215 212 216 217 213 211 213 214 217 219 218 215 214 216 218 220 223 226 235 250 263 276 285 294 302 305 308 310 311 312 311 311 312 313 317
271 270 271 272 271 270 268 267 265 263 261 259 258 257 256 257 254 253 257 262 262 259 257 255 253 251 248 245 246 247 245 243 240 238 236 234 233 231 229 228 228 230 229 226 227 227 207 200 206 207 205 204 209 212 209 209 210 209 210 210 208 209 212 217 219 218 219 224 238 255 266 279 288 296 302 304 308 312 312 313 313 314 317 319 321
271 270 271 271 270 269 268 267 264 262 261 259 258 256 255 256 255 253 255 262 264 261 258 257 255 253 251 249 249 250 247 243 240 238 237 235 234 232 231 230 229 230 230 226 224 216 189 180 191 194 193 196 203 203 201 204 204 200 203 204 206 211 215 220 222 219 219 228 248 261 269 279 286 292 295 297 300 304 305 307 308 311 318 322 323
270 269 269 268 267 266 265 264 263 261 260 259 257 257 256 255 255 255 257 262 265 263 260 259 257 255 253 251 252 251 246 241 240 238 237 235 235 233 232 232 229 229 229 225 220 212 191 174 180 189 188 187 189 186 186 191 193 195 199 204 209 216 220 224 225 223 224 237 252 261 271 280 285 287 290 291 292 294 297 300 304 313 323 326 325
269 268 267 265 263 261 261 261 261 260 260 259 257 257 257 256 255 256 259 263 264 263 262 261 258 256 254 252 252 250 245 241 239 238 237 235 234 232 231 230 228 227 226 222 216 211 199 181 174 179 183 182 179 180 185 188 188 192 199 207 215 220 224 227 227 227 230 239 251 262 274 281 283 284 287 288 289 293 298 302 311 324 331 329 328
270 268 266 264 261 259 259 259 259 259 259 257 257 257 257 256 255 258 261 262 262 262 262 262 260 257 254 253 252 250 245 242 241 240 239 236 233 232 229 228 226 223 220 215 208 205 199 187 178 178 182 183 180 179 186 192 193 195 201 210 218 223 225 225 225 228 233 242 257 270 277 280 281 285 289 291 294 298 302 310 322 331 331 329 331
271 268 265 263 261 259 258 257 257 257 256 255 255 256 256 254 254 258 261 260 259 260 260 261 260 257 254 253 252 250 247 246 245 242 240 237 234 232 229 227 223 217 212 206 199 194 189 182 181 183 184 185 183 179 183 191 197 202 207 211 215 219 220 220 220 225 236 253 266 271 273 274 278 287 293 295 300 307 313 318 324 328 330 332 333
272 270 267 265 263 261 259 257 256 255 253 253 253 253 253 251 251 255 258 257 257 258 259 260 259 256 254 253 252 251 251 250 249 246 243 240 234 229 227 225 219 210 202 195 189 185 182 179 181 183 180 180 182 181 181 188 195 204 210 211 210 210 211 214 221 232 247 260 265 262 263 270 280 290 296 303 313 319 320 321 324 327 331 333 331
277 273 269 266 263 261 259 258 256 253 250 250 251 251 251 250 249 251 255 257 257 258 258 258 257 255 254 253 253 253 254 253 252 249 247 243 236 230 225 219 210 201 193 187 183 180 178 176 175 175 174 174 177 178 182 191 198 203 205 203 202 202 205 215 228 244 252 254 257 260 266 282 292 300 310 316 321 322 321 321 324 328 332 332 331
279 275 271 266 262 260 259 258 256 253 251 251 252 252 251 250 249 250 255 258 258 258 257 256 256 255 254 254 254 254 254 253 252 249 246 242 239 236 230 219 206 194 185 180 178 178 175 171 169 170 169 171 180 185 190 195 197 197 195 192 191 194 202 219 235 246 249 245 250 264 276 291 299 305 314 316 318 320 313 312 320 329 332 332 332
280 276 271 265 262 260 258 257 255 254 253 253 253 253 252 252 251 251 254 258 258 257 257 255 255 256 256 255 255 254 252 250 248 246 243 240 236 233 230 222 209 198 188 179 175 173 171 167 168 172 173 178 187 192 193 192 189 189 189 186 186 191 198 213 232 241 244 242 249 273 284 291 293 298 307 311 310 307 299 303 317 328 331 332 335
281 276 270 266 264 261 258 256 255 254 254 255 255 254 253 252 253 252 254 257 257 256 255 255 255 255 256 256 254 252 250 247 244 240 237 234 230 225 220 212 203 197 194 188 181 176 174 172 172 176 179 181 185 190 191 188 183 183 187 187 188 195 200 212 228 228 231 247 259 272 283 288 278 284 298 302 293 288 292 305 318 329 335 337 340
281 275 270 267 264 261 258 255 255 255 255 255 255 255 254 254 254 254 254 255 256 254 254 255 255 254 254 254 252 249 246 242 238 234 228 222 217 212 206 198 193 191 192 191 187 185 187 184 179 180 185 187 189 193 192 187 182 179 183 188 193 203 212 221 228 223 224 249 256 263 282 280 259 271 290 287 279 287 302 313 323 336 340 341 343
280 274 271 268 264 261 258 256 256 256 256 256 256 255 255 255 254 253 254 255 255 253 253 254 254 255 254 252 249 245 241 235 229 224 217 207 198 192 187 184 184 184 185 187 189 191 193 192 188 190 195 198 200 196 188 187 188 188 189 193 200 209 216 219 220 214 222 243 245 254 274 257 247 273 289 283 286 300 310 315 321 333 335 338 344
279 275 272 268 265 262 259 258 257 257 256 257 256 255 255 255 254 252 252 253 252 252 252 253 255 255 254 251 246 241 236 231 224 216 207 196 186 179 175 173 173 176 181 188 194 195 194 195 197 200 200 199 197 191 187 189 192 194 197 203 208 210 209 208 209 206 218 236 238 245 253 245 259 283 289 290 301 311 315 311 306 321 334 339 345
278 273 269 267 264 262 260 258 256 256 257 256 255 255 255 253 252 251 251 250 250 250 251 252 253 252 249 246 242 237 233 227 219 210 201 190 179 171 166 164 166 171 177 185 190 191 189 190 194 196 192 189 188 187 188 190 190 192 194 195 198 198 195 201 210 213 221 238 249 257 256 256 271 285 292 301 311 316 308 290 297 329 340 345 347
277 272 269 267 264 262 260 257 254 254 256 255 254 254 252 250 250 249 247 246 246 247 248 248 248 246 244 242 237 232 229 222 211 201 193 183 172 166 162 160 163 164 161 164 171 177 182 185 186 185 182 182 184 185 187 191 193 194 191 188 192 195 195 200 211 216 220 234 255 267 263 258 273 290 303 311 317 311 278 257 292 332 339 344 349
277 274 272 269 265 262 259 256 255 255 255 256 254 252 250 248 247 246 243 242 241 240 241 241 242 242 240 238 234 228 222 214 205 196 187 177 170 167 165 161 157 153 150 156 162 166 172 176 175 173 173 175 177 176 179 187 192 196 197 197 197 197 199 204 207 213 227 244 255 262 259 258 275 300 315 321 319 274 252 247 290 329 338 346 350
278 275 272 269 265 262 259 257 256 255 255 256 253 250 249 246 246 244 240 235 231 231 232 231 231 231 228 227 226 223 218 210 201 192 185 177 172 170 167 160 154 153 159 167 170 167 167 168 166 163 163 167 170 172 175 181 186 194 203 208 208 206 208 210 206 204 222 244 245 246 254 270 282 302 321 334 338 251 239 246 294 327 344 348 345